owner,sensor,date,latitude,longitude,air_temperature,qcFlag 
LUMCON,ioos:station:LUMCON:102:1,2019-03-01T00:30:00Z,29.1870,-90.6093,18.5,1111122 
LUMCON,ioos:station:LUMCON:102:1,2019-03-01T00:45:00Z,29.1870,-90.6093,18.6,1111122 
LUMCON,ioos:station:LUMCON:102:1,2019-03-01T01:00:00Z,29.1870,-90.6093,18.6,1111122 
LUMCON,ioos:station:LUMCON:102:1,2019-03-01T01:15:00Z,29.1870,-90.6093,18.5,1111122 
LUMCON,ioos:station:LUMCON:102:1,2019-03-01T01:30:00Z,29.1870,-90.6093,18.5,1111122 
LUMCON,ioos:station:LUMCON:102:1,2019-03-01T01:45:00Z,29.1870,-90.6093,18.5,1111122 
LUMCON,ioos:station:LUMCON:102:1,2019-03-01T02:00:00Z,29.1870,-90.6093,19.1,1111122 
LUMCON,ioos:station:LUMCON:102:1,2019-03-01T02:15:00Z,29.1870,-90.6093,18.9,1111122 
LUMCON,ioos:station:LUMCON:102:1,2019-03-01T02:30:00Z,29.1870,-90.6093,18.6,1111122 
LUMCON,ioos:station:LUMCON:102:1,2019-03-01T02:45:00Z,29.1870,-90.6093,18.6,1111122 
LUMCON,ioos:station:LUMCON:102:1,2019-03-01T03:00:00Z,29.1870,-90.6093,18.4,1111122 
LUMCON,ioos:station:LUMCON:102:1,2019-03-01T03:15:00Z,29.1870,-90.6093,18.4,1111122 
LUMCON,ioos:station:LUMCON:102:1,2019-03-01T03:30:00Z,29.1870,-90.6093,18.4,1111122 
LUMCON,ioos:station:LUMCON:102:1,2019-03-01T03:45:00Z,29.1870,-90.6093,18.3,1111122 
LUMCON,ioos:station:LUMCON:102:1,2019-03-01T04:00:00Z,29.1870,-90.6093,18.2,1111122 
LUMCON,ioos:station:LUMCON:102:1,2019-03-01T04:15:00Z,29.1870,-90.6093,18.3,1111122 
LUMCON,ioos:station:LUMCON:102:1,2019-03-01T04:30:00Z,29.1870,-90.6093,18.2,1111122 
LUMCON,ioos:station:LUMCON:102:1,2019-03-01T04:45:00Z,29.1870,-90.6093,18.4,1111122 
LUMCON,ioos:station:LUMCON:102:1,2019-03-01T05:00:00Z,29.1870,-90.6093,18.6,1111122 
LUMCON,ioos:station:LUMCON:102:1,2019-03-01T05:15:00Z,29.1870,-90.6093,18.5,1111122 
LUMCON,ioos:station:LUMCON:102:1,2019-03-01T05:30:00Z,29.1870,-90.6093,18.4,1111122 
LUMCON,ioos:station:LUMCON:102:1,2019-03-01T05:45:00Z,29.1870,-90.6093,18.4,1111122 
LUMCON,ioos:station:LUMCON:102:1,2019-03-01T06:00:00Z,29.1870,-90.6093,18.6,1111122 
LUMCON,ioos:station:LUMCON:102:1,2019-03-01T06:15:00Z,29.1870,-90.6093,18.5,1111122 
LUMCON,ioos:station:LUMCON:102:1,2019-03-01T06:30:00Z,29.1870,-90.6093,18.4,1111122 
LUMCON,ioos:station:LUMCON:102:1,2019-03-01T06:45:00Z,29.1870,-90.6093,18.2,1111122 
LUMCON,ioos:station:LUMCON:102:1,2019-03-01T07:00:00Z,29.1870,-90.6093,18.2,1111122 
LUMCON,ioos:station:LUMCON:102:1,2019-03-01T07:15:00Z,29.1870,-90.6093,18.1,1111122 
LUMCON,ioos:station:LUMCON:102:1,2019-03-01T07:30:00Z,29.1870,-90.6093,18.2,1111122 
LUMCON,ioos:station:LUMCON:102:1,2019-03-01T07:45:00Z,29.1870,-90.6093,18.2,1111122 
LUMCON,ioos:station:LUMCON:102:1,2019-03-01T08:00:00Z,29.1870,-90.6093,18.1,1111122 
LUMCON,ioos:station:LUMCON:102:1,2019-03-01T08:15:00Z,29.1870,-90.6093,18.1,1111122 
LUMCON,ioos:station:LUMCON:102:1,2019-03-01T08:30:00Z,29.1870,-90.6093,18.0,1111122 
LUMCON,ioos:station:LUMCON:102:1,2019-03-01T08:45:00Z,29.1870,-90.6093,18.0,1111122 
LUMCON,ioos:station:LUMCON:102:1,2019-03-01T09:00:00Z,29.1870,-90.6093,18.0,1111122 
LUMCON,ioos:station:LUMCON:102:1,2019-03-01T09:15:00Z,29.1870,-90.6093,18.1,1111122 
LUMCON,ioos:station:LUMCON:102:1,2019-03-01T09:30:00Z,29.1870,-90.6093,18.2,1111122 
LUMCON,ioos:station:LUMCON:102:1,2019-03-01T09:45:00Z,29.1870,-90.6093,18.3,1111122 
LUMCON,ioos:station:LUMCON:102:1,2019-03-01T10:00:00Z,29.1870,-90.6093,18.3,1111122 
LUMCON,ioos:station:LUMCON:102:1,2019-03-01T10:15:00Z,29.1870,-90.6093,18.2,1111122 
LUMCON,ioos:station:LUMCON:102:1,2019-03-01T10:30:00Z,29.1870,-90.6093,18.1,1111122 
LUMCON,ioos:station:LUMCON:102:1,2019-03-01T10:45:00Z,29.1870,-90.6093,18.5,1111122 
LUMCON,ioos:station:LUMCON:102:1,2019-03-01T11:00:00Z,29.1870,-90.6093,18.7,1111122 
LUMCON,ioos:station:LUMCON:102:1,2019-03-01T11:15:00Z,29.1870,-90.6093,18.7,1111122 
LUMCON,ioos:station:LUMCON:102:1,2019-03-01T11:30:00Z,29.1870,-90.6093,19.2,1111122 
LUMCON,ioos:station:LUMCON:102:1,2019-03-01T11:45:00Z,29.1870,-90.6093,19.0,1111122 
LUMCON,ioos:station:LUMCON:102:1,2019-03-01T12:00:00Z,29.1870,-90.6093,18.9,1111122 
LUMCON,ioos:station:LUMCON:102:1,2019-03-01T12:15:00Z,29.1870,-90.6093,18.8,1111122 
LUMCON,ioos:station:LUMCON:102:1,2019-03-01T12:30:00Z,29.1870,-90.6093,18.6,1111122 
LUMCON,ioos:station:LUMCON:102:1,2019-03-01T12:45:00Z,29.1870,-90.6093,18.9,1111122 
LUMCON,ioos:station:LUMCON:102:1,2019-03-01T13:00:00Z,29.1870,-90.6093,19.0,1111122 
LUMCON,ioos:station:LUMCON:102:1,2019-03-01T13:15:00Z,29.1870,-90.6093,18.9,1111122 
LUMCON,ioos:station:LUMCON:102:1,2019-03-01T13:30:00Z,29.1870,-90.6093,18.8,1111122 
LUMCON,ioos:station:LUMCON:102:1,2019-03-01T13:45:00Z,29.1870,-90.6093,18.7,1111122 
LUMCON,ioos:station:LUMCON:102:1,2019-03-01T14:00:00Z,29.1870,-90.6093,18.6,1111122 
LUMCON,ioos:station:LUMCON:102:1,2019-03-01T14:15:00Z,29.1870,-90.6093,18.6,1111122 
LUMCON,ioos:station:LUMCON:102:1,2019-03-01T14:30:00Z,29.1870,-90.6093,19.0,1111122 
LUMCON,ioos:station:LUMCON:102:1,2019-03-01T14:45:00Z,29.1870,-90.6093,18.8,1111122 
LUMCON,ioos:station:LUMCON:102:1,2019-03-04T17:30:00Z,29.1870,-90.6093,7.1,1111122 
LUMCON,ioos:station:LUMCON:102:1,2019-03-04T17:45:00Z,29.1870,-90.6093,7.3,1111122 
LUMCON,ioos:station:LUMCON:102:1,2019-03-04T18:00:00Z,29.1870,-90.6093,7.4,1111122 
LUMCON,ioos:station:LUMCON:102:1,2019-03-04T18:15:00Z,29.1870,-90.6093,7.7,1111122 
LUMCON,ioos:station:LUMCON:102:1,2019-03-04T18:30:00Z,29.1870,-90.6093,7.7,1111122 
LUMCON,ioos:station:LUMCON:102:1,2019-03-04T18:45:00Z,29.1870,-90.6093,7.6,1111122 
LUMCON,ioos:station:LUMCON:102:1,2019-03-04T19:00:00Z,29.1870,-90.6093,7.7,1111122 
LUMCON,ioos:station:LUMCON:102:1,2019-03-04T19:15:00Z,29.1870,-90.6093,7.7,1111122 
LUMCON,ioos:station:LUMCON:102:1,2019-03-04T19:30:00Z,29.1870,-90.6093,7.8,1111122 
LUMCON,ioos:station:LUMCON:102:1,2019-03-04T19:45:00Z,29.1870,-90.6093,7.7,1111122 
LUMCON,ioos:station:LUMCON:102:1,2019-03-04T20:00:00Z,29.1870,-90.6093,7.8,1111122 
LUMCON,ioos:station:LUMCON:102:1,2019-03-04T20:15:00Z,29.1870,-90.6093,7.9,1111122 
LUMCON,ioos:station:LUMCON:102:1,2019-03-04T20:30:00Z,29.1870,-90.6093,8.1,1111122 
LUMCON,ioos:station:LUMCON:102:1,2019-03-04T20:45:00Z,29.1870,-90.6093,8.2,1111122 
LUMCON,ioos:station:LUMCON:102:1,2019-03-04T21:00:00Z,29.1870,-90.6093,8.1,1111122 
LUMCON,ioos:station:LUMCON:102:1,2019-03-04T21:15:00Z,29.1870,-90.6093,8.4,1111122 
LUMCON,ioos:station:LUMCON:102:1,2019-03-04T21:30:00Z,29.1870,-90.6093,8.4,1111122 
LUMCON,ioos:station:LUMCON:102:1,2019-03-04T21:45:00Z,29.1870,-90.6093,8.5,1111122 
LUMCON,ioos:station:LUMCON:102:1,2019-03-04T22:00:00Z,29.1870,-90.6093,8.7,1111122 
LUMCON,ioos:station:LUMCON:102:1,2019-03-04T22:15:00Z,29.1870,-90.6093,8.7,1111122 
LUMCON,ioos:station:LUMCON:102:1,2019-03-04T22:30:00Z,29.1870,-90.6093,8.9,1111122 
LUMCON,ioos:station:LUMCON:102:1,2019-03-04T22:45:00Z,29.1870,-90.6093,9.0,1111122 
LUMCON,ioos:station:LUMCON:102:1,2019-03-04T23:00:00Z,29.1870,-90.6093,9.0,1111122 
LUMCON,ioos:station:LUMCON:102:1,2019-03-04T23:15:00Z,29.1870,-90.6093,9.1,1111122 
LUMCON,ioos:station:LUMCON:102:1,2019-03-04T23:30:00Z,29.1870,-90.6093,9.2,1111122 
LUMCON,ioos:station:LUMCON:102:1,2019-03-04T23:45:00Z,29.1870,-90.6093,9.2,1111122 
LUMCON,ioos:station:LUMCON:102:1,2019-03-05T00:00:00Z,29.1870,-90.6093,9.1,1111122 
LUMCON,ioos:station:LUMCON:102:1,2019-03-05T00:15:00Z,29.1870,-90.6093,9.0,1111122 
LUMCON,ioos:station:LUMCON:102:1,2019-03-05T00:30:00Z,29.1870,-90.6093,8.9,1111122 
LUMCON,ioos:station:LUMCON:102:1,2019-03-05T00:45:00Z,29.1870,-90.6093,8.8,1111122 
LUMCON,ioos:station:LUMCON:102:1,2019-03-05T01:00:00Z,29.1870,-90.6093,8.7,1111122 
LUMCON,ioos:station:LUMCON:102:1,2019-03-05T01:15:00Z,29.1870,-90.6093,8.7,1111122 
LUMCON,ioos:station:LUMCON:102:1,2019-03-05T01:30:00Z,29.1870,-90.6093,8.6,1111122 
LUMCON,ioos:station:LUMCON:102:1,2019-03-05T01:45:00Z,29.1870,-90.6093,8.6,1111122 
LUMCON,ioos:station:LUMCON:102:1,2019-03-05T02:00:00Z,29.1870,-90.6093,8.7,1111122 
LUMCON,ioos:station:LUMCON:102:1,2019-03-05T02:15:00Z,29.1870,-90.6093,8.6,1111122 
LUMCON,ioos:station:LUMCON:102:1,2019-03-05T02:30:00Z,29.1870,-90.6093,8.7,1111122 
LUMCON,ioos:station:LUMCON:102:1,2019-03-05T02:45:00Z,29.1870,-90.6093,8.5,1111122 
LUMCON,ioos:station:LUMCON:102:1,2019-03-05T03:00:00Z,29.1870,-90.6093,8.6,1111122 
LUMCON,ioos:station:LUMCON:102:1,2019-03-05T03:15:00Z,29.1870,-90.6093,8.5,1111122 
LUMCON,ioos:station:LUMCON:102:1,2019-03-05T03:30:00Z,29.1870,-90.6093,8.6,1111122 
LUMCON,ioos:station:LUMCON:102:1,2019-03-05T03:45:00Z,29.1870,-90.6093,8.2,1111122 
LUMCON,ioos:station:LUMCON:102:1,2019-03-05T04:00:00Z,29.1870,-90.6093,7.6,1111122 
LUMCON,ioos:station:LUMCON:102:1,2019-03-05T04:15:00Z,29.1870,-90.6093,7.4,1111122 
LUMCON,ioos:station:LUMCON:102:1,2019-03-05T04:30:00Z,29.1870,-90.6093,7.0,1111122 
LUMCON,ioos:station:LUMCON:102:1,2019-03-05T04:45:00Z,29.1870,-90.6093,6.6,1111122 
LUMCON,ioos:station:LUMCON:102:1,2019-03-05T05:00:00Z,29.1870,-90.6093,6.1,1111122 
LUMCON,ioos:station:LUMCON:102:1,2019-03-05T05:15:00Z,29.1870,-90.6093,6.0,1111122 
LUMCON,ioos:station:LUMCON:102:1,2019-03-05T05:30:00Z,29.1870,-90.6093,5.8,1111122 
LUMCON,ioos:station:LUMCON:102:1,2019-03-05T05:45:00Z,29.1870,-90.6093,5.3,1111122 
LUMCON,ioos:station:LUMCON:102:1,2019-03-05T06:00:00Z,29.1870,-90.6093,5.5,1111122 
LUMCON,ioos:station:LUMCON:102:1,2019-03-05T06:15:00Z,29.1870,-90.6093,5.4,1111122 
LUMCON,ioos:station:LUMCON:102:1,2019-03-05T06:30:00Z,29.1870,-90.6093,5.4,1111122 
LUMCON,ioos:station:LUMCON:102:1,2019-03-05T06:45:00Z,29.1870,-90.6093,5.1,1111122 
LUMCON,ioos:station:LUMCON:102:1,2019-03-05T07:00:00Z,29.1870,-90.6093,5.2,1111122 
LUMCON,ioos:station:LUMCON:102:1,2019-03-05T07:15:00Z,29.1870,-90.6093,5.4,1111122 
LUMCON,ioos:station:LUMCON:102:1,2019-03-05T07:30:00Z,29.1870,-90.6093,5.2,1111122 
LUMCON,ioos:station:LUMCON:102:1,2019-03-05T07:45:00Z,29.1870,-90.6093,5.2,1111122 
LUMCON,ioos:station:LUMCON:102:1,2019-03-05T08:00:00Z,29.1870,-90.6093,5.0,1111122 
LUMCON,ioos:station:LUMCON:102:1,2019-03-05T08:15:00Z,29.1870,-90.6093,5.1,1111122 
LUMCON,ioos:station:LUMCON:102:1,2019-03-05T08:30:00Z,29.1870,-90.6093,4.8,1111122 
LUMCON,ioos:station:LUMCON:102:1,2019-03-05T08:45:00Z,29.1870,-90.6093,4.8,1111122 
LUMCON,ioos:station:LUMCON:102:1,2019-03-05T09:00:00Z,29.1870,-90.6093,4.6,1111122 
LUMCON,ioos:station:LUMCON:102:1,2019-03-05T09:15:00Z,29.1870,-90.6093,4.3,1111122 
LUMCON,ioos:station:LUMCON:102:1,2019-03-05T09:30:00Z,29.1870,-90.6093,3.9,1111122 
LUMCON,ioos:station:LUMCON:102:1,2019-03-05T09:45:00Z,29.1870,-90.6093,4.0,1111122 
LUMCON,ioos:station:LUMCON:102:1,2019-03-05T10:00:00Z,29.1870,-90.6093,4.0,1111122 
LUMCON,ioos:station:LUMCON:102:1,2019-03-05T10:15:00Z,29.1870,-90.6093,3.9,1111122 
LUMCON,ioos:station:LUMCON:102:1,2019-03-05T10:30:00Z,29.1870,-90.6093,3.8,1111122 
LUMCON,ioos:station:LUMCON:102:1,2019-03-05T10:45:00Z,29.1870,-90.6093,3.8,1111122 
LUMCON,ioos:station:LUMCON:102:1,2019-03-05T11:00:00Z,29.1870,-90.6093,3.5,1111122 
LUMCON,ioos:station:LUMCON:102:1,2019-03-05T11:15:00Z,29.1870,-90.6093,3.7,1111122 
LUMCON,ioos:station:LUMCON:102:1,2019-03-05T11:30:00Z,29.1870,-90.6093,3.5,1111122 
LUMCON,ioos:station:LUMCON:102:1,2019-03-05T11:45:00Z,29.1870,-90.6093,3.7,1111122 
LUMCON,ioos:station:LUMCON:102:1,2019-03-05T12:00:00Z,29.1870,-90.6093,3.6,1111122 
LUMCON,ioos:station:LUMCON:102:1,2019-03-05T12:15:00Z,29.1870,-90.6093,3.5,1111122 
LUMCON,ioos:station:LUMCON:102:1,2019-03-05T12:30:00Z,29.1870,-90.6093,3.4,1111122 
LUMCON,ioos:station:LUMCON:102:1,2019-03-05T12:45:00Z,29.1870,-90.6093,3.1,1111122 
LUMCON,ioos:station:LUMCON:102:1,2019-03-05T13:00:00Z,29.1870,-90.6093,3.2,1111122 
LUMCON,ioos:station:LUMCON:102:1,2019-03-05T13:15:00Z,29.1870,-90.6093,2.9,1111122 
LUMCON,ioos:station:LUMCON:102:1,2019-03-05T13:30:00Z,29.1870,-90.6093,2.9,1111122 
LUMCON,ioos:station:LUMCON:102:1,2019-03-05T13:45:00Z,29.1870,-90.6093,2.8,1111122 
LUMCON,ioos:station:LUMCON:102:1,2019-03-05T14:00:00Z,29.1870,-90.6093,2.8,1111122 
LUMCON,ioos:station:LUMCON:102:1,2019-03-05T14:15:00Z,29.1870,-90.6093,2.9,1111122 
LUMCON,ioos:station:LUMCON:102:1,2019-03-05T14:30:00Z,29.1870,-90.6093,2.8,1111122 
LUMCON,ioos:station:LUMCON:102:1,2019-03-05T14:45:00Z,29.1870,-90.6093,2.9,1111122 
LUMCON,ioos:station:LUMCON:102:1,2019-03-05T15:00:00Z,29.1870,-90.6093,3.0,1111122 
LUMCON,ioos:station:LUMCON:102:1,2019-03-05T15:15:00Z,29.1870,-90.6093,3.1,1111122 
LUMCON,ioos:station:LUMCON:102:1,2019-03-05T15:30:00Z,29.1870,-90.6093,3.0,1111122 
LUMCON,ioos:station:LUMCON:102:1,2019-03-05T15:45:00Z,29.1870,-90.6093,3.3,1111122 
LUMCON,ioos:station:LUMCON:102:1,2019-03-05T16:00:00Z,29.1870,-90.6093,3.4,1111122 
LUMCON,ioos:station:LUMCON:102:1,2019-03-05T16:15:00Z,29.1870,-90.6093,3.5,1111122 
LUMCON,ioos:station:LUMCON:102:1,2019-03-05T16:30:00Z,29.1870,-90.6093,3.8,1111122 
LUMCON,ioos:station:LUMCON:102:1,2019-03-05T16:45:00Z,29.1870,-90.6093,4.1,1111122 
LUMCON,ioos:station:LUMCON:102:1,2019-03-05T17:00:00Z,29.1870,-90.6093,4.5,1111122 
LUMCON,ioos:station:LUMCON:102:1,2019-03-05T17:15:00Z,29.1870,-90.6093,4.5,1111122 
LUMCON,ioos:station:LUMCON:102:1,2019-03-05T17:30:00Z,29.1870,-90.6093,5.0,1111122 
LUMCON,ioos:station:LUMCON:102:1,2019-03-05T17:45:00Z,29.1870,-90.6093,5.3,1111122 
LUMCON,ioos:station:LUMCON:102:1,2019-03-05T18:00:00Z,29.1870,-90.6093,5.4,1111122 
LUMCON,ioos:station:LUMCON:102:1,2019-03-05T18:15:00Z,29.1870,-90.6093,5.8,1111122 
LUMCON,ioos:station:LUMCON:102:1,2019-03-05T18:30:00Z,29.1870,-90.6093,6.0,1111122 
LUMCON,ioos:station:LUMCON:102:1,2019-03-05T18:45:00Z,29.1870,-90.6093,6.3,1111122 
LUMCON,ioos:station:LUMCON:102:1,2019-03-05T19:00:00Z,29.1870,-90.6093,6.7,1111122 
LUMCON,ioos:station:LUMCON:102:1,2019-03-05T19:15:00Z,29.1870,-90.6093,7.1,1111122 
LUMCON,ioos:station:LUMCON:102:1,2019-03-05T19:30:00Z,29.1870,-90.6093,7.1,1111122 
LUMCON,ioos:station:LUMCON:102:1,2019-03-05T19:45:00Z,29.1870,-90.6093,7.6,1111122 
LUMCON,ioos:station:LUMCON:102:1,2019-03-05T20:00:00Z,29.1870,-90.6093,8.0,1111122 
LUMCON,ioos:station:LUMCON:102:1,2019-03-05T20:15:00Z,29.1870,-90.6093,8.0,1111122 
LUMCON,ioos:station:LUMCON:102:1,2019-03-05T20:30:00Z,29.1870,-90.6093,8.2,1111122 
LUMCON,ioos:station:LUMCON:102:1,2019-03-05T20:45:00Z,29.1870,-90.6093,8.4,1111122 
LUMCON,ioos:station:LUMCON:102:1,2019-03-05T21:00:00Z,29.1870,-90.6093,8.6,1111122 
LUMCON,ioos:station:LUMCON:102:1,2019-03-05T21:15:00Z,29.1870,-90.6093,8.8,1111122 
LUMCON,ioos:station:LUMCON:102:1,2019-03-05T21:30:00Z,29.1870,-90.6093,9.0,1111122 
LUMCON,ioos:station:LUMCON:102:1,2019-03-05T21:45:00Z,29.1870,-90.6093,9.1,1111122 
LUMCON,ioos:station:LUMCON:102:1,2019-03-05T22:00:00Z,29.1870,-90.6093,9.4,1111122 
LUMCON,ioos:station:LUMCON:102:1,2019-03-05T22:15:00Z,29.1870,-90.6093,9.5,1111122 
LUMCON,ioos:station:LUMCON:102:1,2019-03-05T22:30:00Z,29.1870,-90.6093,9.6,1111122 
LUMCON,ioos:station:LUMCON:102:1,2019-03-05T22:45:00Z,29.1870,-90.6093,9.7,1111122 
LUMCON,ioos:station:LUMCON:102:1,2019-03-05T23:00:00Z,29.1870,-90.6093,9.9,1111122 
LUMCON,ioos:station:LUMCON:102:1,2019-03-05T23:15:00Z,29.1870,-90.6093,9.8,1111122 
LUMCON,ioos:station:LUMCON:102:1,2019-03-05T23:30:00Z,29.1870,-90.6093,9.7,1111122 
LUMCON,ioos:station:LUMCON:102:1,2019-03-05T23:45:00Z,29.1870,-90.6093,9.7,1111122 
LUMCON,ioos:station:LUMCON:102:1,2019-03-06T00:00:00Z,29.1870,-90.6093,9.6,1111122 
LUMCON,ioos:station:LUMCON:102:1,2019-03-06T00:15:00Z,29.1870,-90.6093,9.7,1111122 
LUMCON,ioos:station:LUMCON:102:1,2019-03-06T00:30:00Z,29.1870,-90.6093,9.8,1111122 
LUMCON,ioos:station:LUMCON:102:1,2019-03-06T00:45:00Z,29.1870,-90.6093,9.8,1111122 
LUMCON,ioos:station:LUMCON:102:1,2019-03-06T01:00:00Z,29.1870,-90.6093,9.8,1111122 
LUMCON,ioos:station:LUMCON:102:1,2019-03-06T01:15:00Z,29.1870,-90.6093,9.8,1111122 
LUMCON,ioos:station:LUMCON:102:1,2019-03-06T01:30:00Z,29.1870,-90.6093,10.0,1111122 
LUMCON,ioos:station:LUMCON:102:1,2019-03-06T01:45:00Z,29.1870,-90.6093,9.9,1111122 
LUMCON,ioos:station:LUMCON:102:1,2019-03-06T02:00:00Z,29.1870,-90.6093,9.8,1111122 
LUMCON,ioos:station:LUMCON:102:1,2019-03-06T02:15:00Z,29.1870,-90.6093,9.9,1111122 
LUMCON,ioos:station:LUMCON:102:1,2019-03-06T02:30:00Z,29.1870,-90.6093,9.8,1111122 
LUMCON,ioos:station:LUMCON:102:1,2019-03-06T02:45:00Z,29.1870,-90.6093,9.6,1111122 
LUMCON,ioos:station:LUMCON:102:1,2019-03-06T03:00:00Z,29.1870,-90.6093,8.6,1111122 
LUMCON,ioos:station:LUMCON:102:1,2019-03-06T03:15:00Z,29.1870,-90.6093,8.5,1111122 
LUMCON,ioos:station:LUMCON:102:1,2019-03-06T03:30:00Z,29.1870,-90.6093,8.4,1111122 
LUMCON,ioos:station:LUMCON:102:1,2019-03-06T03:45:00Z,29.1870,-90.6093,8.3,1111122 
LUMCON,ioos:station:LUMCON:102:1,2019-03-06T04:00:00Z,29.1870,-90.6093,8.6,1111122 
LUMCON,ioos:station:LUMCON:102:1,2019-03-06T04:15:00Z,29.1870,-90.6093,8.5,1111122 
LUMCON,ioos:station:LUMCON:102:1,2019-03-06T04:30:00Z,29.1870,-90.6093,8.4,1111122 
LUMCON,ioos:station:LUMCON:102:1,2019-03-06T04:45:00Z,29.1870,-90.6093,8.5,1111122 
LUMCON,ioos:station:LUMCON:102:1,2019-03-06T05:00:00Z,29.1870,-90.6093,8.4,1111122 
LUMCON,ioos:station:LUMCON:102:1,2019-03-06T05:15:00Z,29.1870,-90.6093,8.3,1111122 
LUMCON,ioos:station:LUMCON:102:1,2019-03-06T05:30:00Z,29.1870,-90.6093,8.1,1111122 
LUMCON,ioos:station:LUMCON:102:1,2019-03-06T05:45:00Z,29.1870,-90.6093,8.0,1111122 
LUMCON,ioos:station:LUMCON:102:1,2019-03-06T06:00:00Z,29.1870,-90.6093,7.9,1111122 
LUMCON,ioos:station:LUMCON:102:1,2019-03-06T06:15:00Z,29.1870,-90.6093,7.6,1111122 
LUMCON,ioos:station:LUMCON:102:1,2019-03-06T06:30:00Z,29.1870,-90.6093,7.4,1111122 
LUMCON,ioos:station:LUMCON:102:1,2019-03-06T06:45:00Z,29.1870,-90.6093,7.2,1111122 
LUMCON,ioos:station:LUMCON:102:1,2019-03-06T07:00:00Z,29.1870,-90.6093,7.0,1111122 
LUMCON,ioos:station:LUMCON:102:1,2019-03-06T07:15:00Z,29.1870,-90.6093,6.9,1111122 
LUMCON,ioos:station:LUMCON:102:1,2019-03-06T07:30:00Z,29.1870,-90.6093,6.9,1111122 
LUMCON,ioos:station:LUMCON:102:1,2019-03-06T07:45:00Z,29.1870,-90.6093,6.9,1111122 
LUMCON,ioos:station:LUMCON:102:1,2019-03-06T08:00:00Z,29.1870,-90.6093,6.9,1111122 
LUMCON,ioos:station:LUMCON:102:1,2019-03-06T08:15:00Z,29.1870,-90.6093,6.9,1111122 
LUMCON,ioos:station:LUMCON:102:1,2019-03-06T08:30:00Z,29.1870,-90.6093,6.7,1111122 
LUMCON,ioos:station:LUMCON:102:1,2019-03-06T08:45:00Z,29.1870,-90.6093,6.5,1111122 
LUMCON,ioos:station:LUMCON:102:1,2019-03-06T09:00:00Z,29.1870,-90.6093,6.5,1111122 
LUMCON,ioos:station:LUMCON:102:1,2019-03-06T09:15:00Z,29.1870,-90.6093,6.7,1111122 
LUMCON,ioos:station:LUMCON:102:1,2019-03-06T09:30:00Z,29.1870,-90.6093,6.4,1111122 
LUMCON,ioos:station:LUMCON:102:1,2019-03-06T09:45:00Z,29.1870,-90.6093,6.2,1111122 
LUMCON,ioos:station:LUMCON:102:1,2019-03-06T10:00:00Z,29.1870,-90.6093,6.5,1111122 
LUMCON,ioos:station:LUMCON:102:1,2019-03-06T10:15:00Z,29.1870,-90.6093,6.0,1111122 
LUMCON,ioos:station:LUMCON:102:1,2019-03-06T10:30:00Z,29.1870,-90.6093,6.0,1111122 
LUMCON,ioos:station:LUMCON:102:1,2019-03-06T10:45:00Z,29.1870,-90.6093,6.1,1111122 
LUMCON,ioos:station:LUMCON:102:1,2019-03-06T11:00:00Z,29.1870,-90.6093,5.9,1111122 
LUMCON,ioos:station:LUMCON:102:1,2019-03-06T11:15:00Z,29.1870,-90.6093,5.7,1111122 
LUMCON,ioos:station:LUMCON:102:1,2019-03-06T11:30:00Z,29.1870,-90.6093,5.6,1111122 
LUMCON,ioos:station:LUMCON:102:1,2019-03-06T11:45:00Z,29.1870,-90.6093,5.3,1111122 
LUMCON,ioos:station:LUMCON:102:1,2019-03-06T12:00:00Z,29.1870,-90.6093,5.3,1111122 
LUMCON,ioos:station:LUMCON:102:1,2019-03-06T12:15:00Z,29.1870,-90.6093,5.3,1111122 
LUMCON,ioos:station:LUMCON:102:1,2019-03-06T12:30:00Z,29.1870,-90.6093,5.3,1111122 
LUMCON,ioos:station:LUMCON:102:1,2019-03-06T12:45:00Z,29.1870,-90.6093,5.3,1111122 
LUMCON,ioos:station:LUMCON:102:1,2019-03-06T13:00:00Z,29.1870,-90.6093,5.2,1111122 
LUMCON,ioos:station:LUMCON:102:1,2019-03-06T13:15:00Z,29.1870,-90.6093,5.3,1111122 
LUMCON,ioos:station:LUMCON:102:1,2019-03-06T13:30:00Z,29.1870,-90.6093,5.3,1111122 
LUMCON,ioos:station:LUMCON:102:1,2019-03-06T13:45:00Z,29.1870,-90.6093,5.3,1111122 
LUMCON,ioos:station:LUMCON:102:1,2019-03-06T14:00:00Z,29.1870,-90.6093,5.6,1111122 
LUMCON,ioos:station:LUMCON:102:1,2019-03-06T14:15:00Z,29.1870,-90.6093,5.8,1111122 
LUMCON,ioos:station:LUMCON:102:1,2019-03-06T14:30:00Z,29.1870,-90.6093,6.0,1111122 
LUMCON,ioos:station:LUMCON:102:1,2019-03-06T14:45:00Z,29.1870,-90.6093,6.2,1111122 
LUMCON,ioos:station:LUMCON:102:1,2019-03-06T15:00:00Z,29.1870,-90.6093,6.5,1111122 
LUMCON,ioos:station:LUMCON:102:1,2019-03-06T15:15:00Z,29.1870,-90.6093,6.6,1111122 
LUMCON,ioos:station:LUMCON:102:1,2019-03-06T15:30:00Z,29.1870,-90.6093,6.7,1111122 
LUMCON,ioos:station:LUMCON:102:1,2019-03-06T15:45:00Z,29.1870,-90.6093,6.5,1111122 
LUMCON,ioos:station:LUMCON:102:1,2019-03-06T16:00:00Z,29.1870,-90.6093,6.7,1111122 
LUMCON,ioos:station:LUMCON:102:1,2019-03-06T16:15:00Z,29.1870,-90.6093,6.9,1111122 
LUMCON,ioos:station:LUMCON:102:1,2019-03-06T16:30:00Z,29.1870,-90.6093,7.0,1111122 
LUMCON,ioos:station:LUMCON:102:1,2019-03-06T16:45:00Z,29.1870,-90.6093,7.1,1111122 
LUMCON,ioos:station:LUMCON:102:1,2019-03-06T17:00:00Z,29.1870,-90.6093,7.2,1111122 
LUMCON,ioos:station:LUMCON:102:1,2019-03-06T17:15:00Z,29.1870,-90.6093,7.2,1111122 
LUMCON,ioos:station:LUMCON:102:1,2019-03-06T17:30:00Z,29.1870,-90.6093,7.4,1111122 
LUMCON,ioos:station:LUMCON:102:1,2019-03-06T17:45:00Z,29.1870,-90.6093,7.6,1111122 
LUMCON,ioos:station:LUMCON:102:1,2019-03-06T18:00:00Z,29.1870,-90.6093,7.6,1111122 
LUMCON,ioos:station:LUMCON:102:1,2019-03-06T18:15:00Z,29.1870,-90.6093,7.7,1111122 
LUMCON,ioos:station:LUMCON:102:1,2019-03-06T18:30:00Z,29.1870,-90.6093,7.9,1111122 
LUMCON,ioos:station:LUMCON:102:1,2019-03-06T18:45:00Z,29.1870,-90.6093,8.1,1111122 
LUMCON,ioos:station:LUMCON:102:1,2019-03-06T19:00:00Z,29.1870,-90.6093,8.2,1111122 
LUMCON,ioos:station:LUMCON:102:1,2019-03-06T19:15:00Z,29.1870,-90.6093,8.4,1111122 
LUMCON,ioos:station:LUMCON:102:1,2019-03-06T19:30:00Z,29.1870,-90.6093,8.4,1111122 
LUMCON,ioos:station:LUMCON:102:1,2019-03-06T19:45:00Z,29.1870,-90.6093,8.6,1111122 
LUMCON,ioos:station:LUMCON:102:1,2019-03-06T20:00:00Z,29.1870,-90.6093,8.6,1111122 
LUMCON,ioos:station:LUMCON:102:1,2019-03-06T20:15:00Z,29.1870,-90.6093,8.5,1111122 
LUMCON,ioos:station:LUMCON:102:1,2019-03-06T20:30:00Z,29.1870,-90.6093,8.6,1111122 
LUMCON,ioos:station:LUMCON:102:1,2019-03-06T20:45:00Z,29.1870,-90.6093,8.7,1111122 
LUMCON,ioos:station:LUMCON:102:1,2019-03-06T21:00:00Z,29.1870,-90.6093,8.7,1111122 
LUMCON,ioos:station:LUMCON:102:1,2019-03-06T21:15:00Z,29.1870,-90.6093,8.7,1111122 
LUMCON,ioos:station:LUMCON:102:1,2019-03-06T21:30:00Z,29.1870,-90.6093,8.8,1111122 
LUMCON,ioos:station:LUMCON:102:1,2019-03-06T21:45:00Z,29.1870,-90.6093,9.0,1111122 
LUMCON,ioos:station:LUMCON:102:1,2019-03-06T22:00:00Z,29.1870,-90.6093,8.9,1111122 
LUMCON,ioos:station:LUMCON:102:1,2019-03-06T22:15:00Z,29.1870,-90.6093,9.0,1111122 
LUMCON,ioos:station:LUMCON:102:1,2019-03-06T22:30:00Z,29.1870,-90.6093,9.0,1111122 
LUMCON,ioos:station:LUMCON:102:1,2019-03-06T22:45:00Z,29.1870,-90.6093,9.2,1111122 
LUMCON,ioos:station:LUMCON:102:1,2019-03-06T23:00:00Z,29.1870,-90.6093,9.2,1111122 
LUMCON,ioos:station:LUMCON:102:1,2019-03-06T23:15:00Z,29.1870,-90.6093,9.3,1111122 
LUMCON,ioos:station:LUMCON:102:1,2019-03-06T23:30:00Z,29.1870,-90.6093,9.4,1111122 
LUMCON,ioos:station:LUMCON:102:1,2019-03-06T23:45:00Z,29.1870,-90.6093,9.4,1111122 
LUMCON,ioos:station:LUMCON:102:1,2019-03-07T00:00:00Z,29.1870,-90.6093,9.3,1111122 
LUMCON,ioos:station:LUMCON:102:1,2019-03-07T00:15:00Z,29.1870,-90.6093,9.2,1111122 
LUMCON,ioos:station:LUMCON:102:1,2019-03-07T00:30:00Z,29.1870,-90.6093,9.4,1111122 
LUMCON,ioos:station:LUMCON:102:1,2019-03-07T00:45:00Z,29.1870,-90.6093,9.4,1111122 
LUMCON,ioos:station:LUMCON:102:1,2019-03-07T01:00:00Z,29.1870,-90.6093,9.4,1111122 
LUMCON,ioos:station:LUMCON:102:1,2019-03-07T01:15:00Z,29.1870,-90.6093,9.5,1111122 
LUMCON,ioos:station:LUMCON:102:1,2019-03-07T01:30:00Z,29.1870,-90.6093,9.5,1111122 
LUMCON,ioos:station:LUMCON:102:1,2019-03-07T01:45:00Z,29.1870,-90.6093,9.6,1111122 